COSMOS 2024 (ETALON 2)

Last updated on Wed Jul 09 2025 00:03:32 GMT+0000 (Coordinated Universal Time)

1 20026U 89039C 25188.77339293 -.00000071 00000+0 00000+0 0 9993 2 20026 65.1424 322.3820 0020172 214.8404 159.1610 2.13204595281161
UTC large
Height (km)
Speed (km/s)
/
Latitude / Longitude
Inclination (degrees)
Orbital Period (minutes)
Azimuth
Elevation
Range (km)
Doppler Factor

Next 0 passes for location: London (51.5072 / 0.1276)

Sorry there are no passes over London.